Flag for Germany Weather past 2 weeks in Merzig, Saarland, Germany

Now
63 °F

Overcast.


Feels Like: 63 °F
Forecast: 59 / 77 °F
Wind: 2 mph from Southeast

Location: Trier-Petrisberg

Current Time: Sep 18, 2014 at 4:18:18 AM

Latest Report: Sep 18, 2014 at 4:00 AM


Visibility: 9 mi

Pressure: 29.86 "Hg

Humidity: 90%

Dew point: 60 °F

Location of MerzigLocation

Historic Weather in Merzig — Graph

°F

Merzig temperature yesterday

Maximum temperature yesterday: 78 °F (at 5:00 PM)
Minimum temperature yesterday: 54 °F (at 6:00 AM)
Average temperature yesterday: 65 °F

Past Weeks' High & Low Weather Summary

 TemperatureHumidityPressure
High78 °F (Sep 5, 5:00 PM)100% (Sep 5, 5:00 AM)30.21 "Hg (Sep 5, 5:00 AM)
Low47 °F (Sep 12, 7:00 AM)49% (Sep 12, 4:00 PM)29.81 "Hg (Sep 17, 6:00 PM)
Average61 °F82%30.04 "Hg
* Reported Sep 3 3:00 AM — Sep 18 3:00 AM, Merzig, Weather by CustomWeather, © 2014

Note: Actual official high and low records may vary slightly from our data, if they occured in-between our weather recording intervals... More about our weather records

Advertising

Merzig weather history for previous 24 hours

 ConditionsComfort  
Time TempWeatherWind HumidityBarometerVisibility
3:00 AM
Sep 18
62 °FOvercast.2 mph88%29.85 "Hg9 mi
2:00 AM63 °FOvercast.1 mph87%29.85 "Hg12 mi
1:00 AM64 °FDrizzle. Overcast.2 mph85%29.85 "Hg11 mi
12:00 AM65 °FOvercast.3 mph79%29.85 "Hg12 mi
11:00 PM
Sep 17
66 °FPassing clouds.5 mph78%29.85 "Hg10 mi
10:00 PM68 °FOvercast.2 mph72%29.85 "Hg14 mi
9:00 PM69 °FOvercast.2 mph71%29.84 "Hg12 mi
8:00 PM70 °FOvercast.2 mph72%29.83 "Hg12 mi
7:00 PM75 °FPartly sunny.3 mph59%29.83 "Hg16 mi
6:00 PM76 °FPartly sunny.3 mph57%29.81 "Hg16 mi
5:00 PM78 °FScattered clouds.2 mph53%29.82 "Hg16 mi
4:00 PM76 °FPartly sunny.2 mph58%29.83 "Hg16 mi
3:00 PM76 °FScattered clouds.3 mph57%29.84 "Hg16 mi
2:00 PM73 °FScattered clouds.2 mph63%29.86 "Hg12 mi
1:00 PM72 °FScattered clouds.2 mph66%29.88 "Hg12 mi
12:00 PM68 °FPassing clouds.2 mph76%29.89 "Hg11 mi
11:00 AM64 °FFog.3 mph82%29.90 "Hg7 mi
10:00 AM58 °FFog.2 mph100%29.92 "Hg1 mi
9:00 AM55 °FFog.2 mph100%29.92 "Hg0 mi
8:00 AM54 °FFog.2 mph100%29.92 "Hg0 mi
7:00 AM54 °FFog.2 mph99%29.92 "Hg1 mi
6:00 AM54 °FFog.3 mph99%29.93 "Hg2 mi
5:00 AM56 °FFog.3 mph99%29.93 "Hg2 mi
4:00 AM56 °FFog.2 mph99%29.93 "Hg3 mi
Weather by CustomWeather, © 2014

See weather overviewHow to use our weather pages